Location: Hopewell Observatory
(38.8698°N, 77.6988°W)
Time: 18:18:38
(UTC-04:00)

Daily predictions for brighter satellites

Satellite Brightness Start Highest point End
(mag) Time Altitude Azimuth Time Altitude Azimuth Time Altitude Azimuth
Cosmos 1818 4.1 21:03:29 10° NNW 21:08:45 48° NE 21:13:57 10° SE
ATLAS 5 CENTAUR R/B 1.7 21:05:42 10° SSW 21:10:16 73° ESE 21:15:14 10° NE
Spot 2 Rocket 4.2 21:05:45 10° S 21:10:42 57° W 21:15:41 10° NNW
Cosmos 1726 4.4 21:14:59 10° ENE 21:15:10 10° ENE 21:15:22 10° ENE
RESURS DK-1 4.5 21:14:56 10° NNE 21:17:26 15° NE 21:19:54 10° E
Cosmos 1076 Rocket 4.3 21:14:36 10° SSE 21:18:33 34° E 21:22:30 10° NNE
Spot 1 4.0 21:15:52 10° SSE 21:19:53 66° ENE 21:24:05 10° N
Cosmos 1727 Rocket 4.1 21:14:25 10° S 21:20:44 87° E 21:27:07 10° N
Cosmos 2237 Rocket 3.3 21:22:34 10° NW 21:27:50 43° WSW 21:33:06 10° S
Cosmos 1939 Rocket 3.1 21:26:15 10° S 21:30:14 75° W 21:34:19 10° NNW
Cosmos 1340 Rocket 3.2 21:28:13 10° SSW 21:32:13 68° W 21:36:17 10° N
Cosmos 2221 2.6 21:29:28 10° N 21:33:51 67° E 21:38:12 10° SSE
CZ-4B DEB 2.5 21:31:13 10° SSE 21:34:10 88° ENE 21:37:09 10° NNW
Envisat 3.6 21:30:22 10° S 21:35:21 56° W 21:40:21 10° NNW
Tiangong 1 2.3 21:35:44 10° WNW 21:38:22 35° N 21:40:59 10° ENE
Meteor 1-29 3.1 21:35:48 10° N 21:39:14 78° WNW 21:42:41 10° SSW
Cosmos 2227 Rocket 4.5 21:36:34 10° WSW 21:41:26 29° WNW 21:46:19 10° N
Cosmos 1674 2.6 21:39:26 10° S 21:43:11 69° E 21:46:55 10° NNE
Cosmos 2208 Rocket 4.1 21:39:22 10° NNW 21:44:43 75° ENE 21:49:33 13° SSE
MetOp-A 4.5 21:40:22 12° SE 21:45:06 52° ENE 21:50:18 10° N
SAR-Lupe-4 3.8 21:43:17 10° S 21:46:50 68° WSW 21:50:24 10° NNW
ARGOS 3.8 21:42:43 14° SE 21:47:05 42° ENE 21:52:09 10° N
Okean 3 Rocket 3.8 21:42:35 10° S 21:47:05 78° W 21:51:35 10° N
Cosmos 2016 Rocket 4.4 21:42:03 10° N 21:48:02 46° ENE 21:52:55 15° SSE
CZ-3B R/B 3.6 21:46:20 10° SW 21:49:03 77° SE 21:57:35 10° NE
SPOT 5 3.6 21:47:02 15° SE 21:50:33 38° ENE 21:55:15 10° N
GPS 2-05 Rocket1 3.9 21:48:50 10° SSW 21:51:11 20° SSE 21:51:24 20° SSE
Lacrosse 5 2.8 21:46:31 10° NNW 21:51:17 40° NE 21:55:19 14° ESE
SL-16 R/B 2.5 21:47:21 10° NNW 21:52:58 66° WSW 21:58:21 11° S
Cosmos 1908 3.1 21:49:10 10° N 21:53:03 84° E 21:56:20 14° S
Cosmos 1570 Rocket 4.1 21:51:17 10° NNW 21:56:36 77° WSW 22:01:16 13° S
SPOT 1/Viking Rocket 4.4 21:54:30 17° SE 21:57:50 34° ENE 22:02:28 10° N
Cosmos 1766 Rocket 3.5 21:54:54 10° S 21:59:10 66° E 22:03:29 10° NNE
Atlas Centaur 2 2.9 21:57:34 10° SW 21:59:41 15° SSW 22:00:27 14° S
KORONAS-FOTON 3.7 21:56:38 10° S 22:00:23 75° E 22:04:10 10° N
Abrixas rocket 4.2 22:00:38 10° NW 22:03:21 24° NNE 22:06:04 10° ENE
Cosmos 1242 Rocket 2.7 22:00:45 10° NNW 22:04:28 74° W 22:07:16 17° S
Cosmos 1328 Rocket 4.3 22:01:55 10° NNE 22:05:54 34° ENE 22:07:52 23° SE
Helios 1B rocket 4.5 22:04:56 10° N 22:08:33 30° WNW 22:12:10 10° SW
USA 245 3.4 22:07:27 27° SE 22:09:05 53° ENE 22:13:07 10° N
YAOGAN 11 4.3 22:08:19 22° SSE 22:11:08 62° ENE 22:15:37 10° N
Cosmos 1151 Rocket 4.5 22:08:46 10° NNE 22:12:17 23° ENE 22:13:43 19° ESE
Cosmos 1743 Rocket 4.0 22:13:15 25° SSE 22:15:18 42° E 22:19:24 10° NNE
H-2A R/B 4.0 22:13:53 13° E 22:15:26 16° ENE 22:17:59 10° NNE
Delta 2 Rocket 4.5 22:11:13 10° SW 22:16:36 43° SSE 22:21:09 14° E
USA 234 3.2 22:10:38 10° NE 22:17:09 70° SE 22:23:39 10° SW
Milstar 3 Cent rocket 4.3 22:10:51 10° WSW 22:17:38 34° S 22:25:01 20° SE
Cosmos 2228 Rocket 3.6 22:15:38 10° N 22:20:04 47° E 22:22:04 28° SE
NOAA 11 4.4 22:16:48 15° S 22:21:19 66° WSW 22:26:44 10° NNW
Cosmos 468 Rocket 3.9 22:18:02 10° NNW 22:23:11 81° ENE 22:26:03 27° SSE
SL-08 RB Rocket 3.7 22:21:54 26° SSE 22:24:24 75° ENE 22:29:01 10° N
Terra 3.0 22:24:00 22° ESE 22:25:52 29° ENE 22:29:56 10° N
ERS-1 Rocket 3.7 22:21:46 13° S 22:26:03 50° W 22:30:57 10° NNW
Cosmos 1459 Rocket 4.4 22:20:26 10° NNW 22:26:37 61° W 22:32:18 12° S
H-2A ROCKET BODY 3.5 22:27:53 10° SSW 22:31:36 27° SE 22:42:14 10° E
Nimbus 7 Rocket 4.4 22:26:40 10° NNE 22:32:42 75° ESE 22:37:30 16° S
Cosmos 332 Rocket 3.8 22:29:50 10° NNW 22:34:46 85° ENE 22:37:02 32° SSE
Cosmos 2123 Rocket 4.0 22:36:04 15° S 22:41:20 83° W 22:47:34 10° N
H-2A R/B 2.1 22:39:05 30° SSE 22:41:51 86° ENE 22:47:18 10° NNW
Cosmos 220 Rocket 4.2 22:39:19 15° SSW 22:42:58 75° WNW 22:47:23 10° NNE
Meteor 2-10 4.2 22:37:55 10° N 22:43:35 87° E 22:46:31 30° S
Cosmos 1626 2.8 22:44:38 36° E 22:44:38 36° E 22:47:59 10° NNE
Cosmos 2058 3.2 22:44:53 43° SE 22:45:38 49° E 22:49:43 10° NNE
Cosmos 2263 Rocket 2.1 22:46:57 26° S 22:50:01 65° ESE 22:55:34 10° NNE
Cosmos 1726 3.0 22:47:13 10° NNW 22:50:44 43° W 22:52:04 29° SW
Cosmos 1300 3.2 22:50:43 10° NNW 22:54:28 54° W 22:55:37 38° SSW
SL-14 R/B 4.0 22:53:30 23° SW 22:55:39 49° W 22:59:30 10° N
RESURS DK-1 3.0 22:51:43 10° NW 22:55:44 47° WSW 22:56:54 36° SSW
EO 1 Delta rocket 4.2 22:55:36 30° SSW 22:57:48 60° W 23:02:24 10° NNW
Cosmos 1725 Rocket 4.3 22:59:38 10° NNW 23:05:47 60° W 23:09:19 26° SSW
ERBS 2.4 23:03:20 10° NW 23:06:28 75° NW 23:06:28 75° NW
deb Chang Zheng 4 3.7 23:05:02 10° NNE 23:09:19 54° E 23:09:31 54° ESE
Cosmos 1356 3.8 23:11:37 57° WSW 23:11:54 59° W 23:15:22 10° N
Cosmos 2151 3.2 23:11:00 43° SSW 23:12:15 67° W 23:16:33 10° N
Tiangong 1 2.5 23:11:32 10° WNW 23:13:24 33° NW 23:13:24 33° NW
Cosmos 1354 Rocket 3.9 23:16:07 45° S 23:17:46 82° ESE 23:23:01 10° NNE
Cosmos 1500 Rocket 4.5 23:18:03 28° SW 23:19:59 45° W 23:24:17 10° N
Cosmos 1844 Rocket 4.0 23:24:43 24° E 23:24:43 24° E 23:28:20 10° NE
Cosmos 371 Rocket 4.3 23:20:06 10° NW 23:24:31 37° WSW 23:25:49 31° SW
CZ-4C R/B 2.8 23:28:14 36° E 23:28:14 36° E 23:32:42 10° NE
Cosmos 1455 2.3 23:24:03 10° N 23:27:33 66° NE 23:27:33 66° NE
Cosmos 1666 Rocket 4.4 23:28:28 38° ENE 23:28:28 38° ENE 23:32:11 10° NNE
CARTOSAT-1 3.8 23:29:27 53° SW 23:29:56 57° W 23:34:12 10° NNW
Cosmos 1464 Rocket 4.2 23:25:12 10° N 23:31:16 57° E 23:32:45 46° SE
Cosmos 841 Rocket 3.9 23:27:39 10° NNW 23:32:46 54° WSW 23:33:53 45° SSW
Lacrosse 5 2.8 23:29:38 10° WNW 23:34:09 33° WSW 23:34:30 33° SW
Cosmos 1763 Rocket 4.3 23:29:33 10° NW 23:34:17 39° WSW 23:35:29 34° SW
Cosmos 1943 3.6 23:29:54 10° NNW 23:35:23 53° WSW 23:36:46 43° SSW
SL-19 R/B 4.3 23:30:16 10° N 23:35:37 73° WNW 23:37:45 39° SSW
Cosmos 1869 4.1 23:34:46 10° N 23:37:55 41° NE 23:37:55 41° NE
Cosmos 1805 Rocket 3.4 23:39:13 82° NE 23:39:13 82° NE 23:43:27 10° N
Abrixas rocket 4.1 23:37:05 10° WNW 23:38:41 26° WNW 23:38:41 26° WNW
Cosmos 1633 Rocket 3.7 23:44:55 44° ENE 23:44:55 44° ENE 23:48:26 10° NNE
CZ-4C R/B 3.6 23:46:43 68° NE 23:46:43 68° NE 23:50:52 10° N
H-2A R/B 2.7 23:51:01 44° WSW 23:51:04 44° W 23:55:10 10° NNW
SME Rocket 3.1 23:52:50 71° NNE 23:52:50 71° NNE 23:56:55 10° NNW
